Location: Newark
(46.2167°N, 5.8664°E)
Time: 12:00:03
(UTC+00:00)

N. Korean satellite - Pass Details

Date: 21 October 2019
Orbit: 456 x 506 km, 97.2° (Epoch: 20 November)

Event Time Altitude Azimuth Distance (km) Brightness Sun altitude
Rises 04:22:05 0° 34° (NE) 2,564 10.8 -17.8°
Reaches altitude 10° 04:25:27 10° 69° (ENE) 1,688 10.4 -17.3°
Maximum altitude 04:26:45 12° 90° (E) 1,594 10.5 -17.0°
Drops below altitude 10° 04:28:03 10° 111° (ESE) 1,692 10.4 -16.8°
Sets 04:31:26 0° 145° (SE) 2,579 10.7 -16.2°
